San Jose, Costa Rica

7:48 AM CST on August 27, 2016 (GMT -0600)
Juan Santamaria International

Weather History for MROC - August, 2014

Change the Weather History Date:

Wednesday, August 13, 2014

  Actual Average Record
Temperature  
Mean Temperature 76 °F -  
Max Temperature 87 °F 80 °F 87 °F (2014)
Min Temperature 66 °F 64 °F 62 °F (1999)
Cooling Degree Days 12    
Growing Degree Days 26 (Base 50)    
Moisture  
Dew Point 61 °F    
Average Humidity 63    
Maximum Humidity 88    
Minimum Humidity 34    
Precipitation  
Precipitation 0.00 in 0.41 in - ()
Sea Level Pressure  
Sea Level Pressure 29.99 in    
Wind  
Wind Speed 8 mph ()    
Max Wind Speed 25 mph    
Max Gust Speed 26 mph    
Visibility 7.9 miles    
Events      
Averages and records for this station are not official NWS values.
T = Trace of Precipitation, MM = Missing Value Source: Averaged Metar Reports

Daily Weather History Graph

Daily Weather History Graph

Search for Another Location

Airport or City:

Trip Planner

Search our weather history database for the weather conditions in past years. The results will help you decide how hot, cold, wet, or windy it might be!

Date:

Astronomy

Aug. 13, 2014 Rise Set
Actual Time 5:27 AM CST 5:55 PM CST
Civil Twilight 5:05 AM CST 6:17 PM CST
Nautical Twilight 4:40 AM CST 6:42 PM CST
Astronomical Twilight 4:14 AM CST 7:08 PM CST
Moon 8:32 PM CST (8/13) 8:08 AM CST (8/13)
Length of Visible Light 13h 11m
Length of Day
12h 27m
Waning Gibbous, 87% of the Moon is Illuminated
Aug 13
Waning Gibbous
Aug 17
Last Quarter
Aug 25
New
Sep 2
First Quarter
Sep 8
Full

Hourly Weather History & Observations

Time (CST) Temp. Heat Index Dew Point Humidity Pressure Visibility Wind Dir Wind Speed Gust Speed Precip Events Conditions
12:00 AM 67 °F - 62 °F 80% 29.91 in 12 mi NE 4.6 mph - -   Mostly Cloudy
12:00 AM 68.0 °F - 62.6 °F 83% 30.05 in - NE 4.6 mph - N/A   Clear
1:00 AM 66.2 °F - 62.6 °F 88% 30.03 in - NE 2.3 mph - N/A   Clear
2:00 AM 69.8 °F - 60.8 °F 73% 30.03 in 6.2 mi ENE 9.2 mph - N/A   Scattered Clouds
3:00 AM 70 °F - 61 °F 66% 29.87 in 12 mi ENE 6.9 mph - -   Scattered Clouds
3:00 AM 69.8 °F - 60.8 °F 73% 30.02 in 6.2 mi ENE 6.9 mph - N/A   Scattered Clouds
4:00 AM 71.6 °F - 59.0 °F 64% 30.02 in 6.2 mi NE 5.8 mph - N/A   Scattered Clouds
5:00 AM 69.8 °F - 59.0 °F 68% 30.01 in 6.2 mi East 8.1 mph - N/A   Scattered Clouds
6:00 AM 70 °F - 60 °F 63% 29.89 in 12 mi ESE 11.5 mph - -   Scattered Clouds
6:00 AM 69.8 °F - 60.8 °F 73% 30.03 in 6.2 mi ESE 11.5 mph - N/A   Mostly Cloudy
7:00 AM 71.6 °F - 59.0 °F 64% 30.04 in 6.2 mi East 6.9 mph - N/A   Mostly Cloudy
8:00 AM 75.2 °F - 59.0 °F 57% 30.05 in 6.2 mi East 11.5 mph 23.0 mph N/A   Mostly Cloudy
9:00 AM 77 °F - 58 °F 41% 29.92 in 12 mi East 15.0 mph - -   Scattered Clouds
9:00 AM 77.0 °F - 57.2 °F 50% 30.06 in 6.2 mi East 15.0 mph 26.5 mph N/A   Mostly Cloudy
10:00 AM 80.6 °F 81.1 °F 59.0 °F 48% 30.05 in 6.2 mi ESE 10.4 mph - N/A   Unknown
11:00 AM 82.4 °F 82.0 °F 57.2 °F 42% 30.04 in - ESE 11.5 mph 23.0 mph N/A   Clear
12:00 PM 81 °F - 60 °F 39% 29.87 in 12 mi East 10.4 mph - -   Clear
12:00 PM 80.6 °F 81.5 °F 60.8 °F 51% 30.02 in - East 10.4 mph - N/A   Clear
1:00 PM 84.2 °F 83.8 °F 59.0 °F 42% 30.00 in - East 11.5 mph - N/A   Clear
2:00 PM 87.8 °F 87.1 °F 59.0 °F 38% 29.99 in 6.2 mi East 9.2 mph - N/A   Mostly Cloudy
3:00 PM 84 °F - 60 °F 34% 29.82 in 12 mi ENE 11.5 mph - -   Partly Cloudy
3:00 PM 84.2 °F 84.4 °F 60.8 °F 45% 29.98 in 6.2 mi ENE 11.5 mph - N/A   Mostly Cloudy
4:00 PM 80.6 °F 81.5 °F 60.8 °F 51% 29.99 in 6.2 mi NE 25.3 mph - N/A   Mostly Cloudy
5:00 PM 77.0 °F - 62.6 °F 61% 29.99 in 6.2 mi SE 8.1 mph - N/A   Mostly Cloudy
5:15 PM 73.4 °F - 69.8 °F 88% 30.01 in 6.2 mi West 12.7 mph - N/A   Mostly Cloudy
6:00 PM 71 °F - 68 °F 86% 29.90 in 9 mi WSW 10.4 mph - -   Overcast
6:00 PM 71.6 °F - 68.0 °F 88% 30.03 in 6.2 mi WSW 10.4 mph - N/A   Mostly Cloudy
7:00 PM 69.8 °F - 66.2 °F 88% 30.04 in 6.2 mi NNW 8.1 mph - N/A   Scattered Clouds
9:00 PM 71 °F - 66 °F 79% 29.88 in 12 mi NE 4.6 mph - -   Scattered Clouds
9:00 PM 71.6 °F - 66.2 °F 83% 30.03 in 6.2 mi NE 4.6 mph - N/A   Mostly Cloudy
11:00 PM 73.4 °F - 59.0 °F 61% 30.00 in - East 6.9 mph - N/A   Clear